Вернуться в каталог

SL-14 DEB

АктивенPO
NORAD 25199·DEBRIS·🇷🇺 Russia

Запущен Aug 18, 1987 с Plesetsk Cosmodrome

Loading…

Ближайшие Пролёты (ближайшие 24 часа)

TLE

СвежийSource: Space-Track

Эпоха: Sep 14, 2026, 06:09 UTC

1 25199U 87068AA  26257.25685665  .00000640  00000-0  57947-3 0  9995
2 25199  82.3655 182.5600 0090816 243.2681 115.9162 13.80559579430924

Отслеживайте SL-14 DEB в реальном времени с AllMySat

Download on the App Store